When you browse on this site, cookies collect data to enhance your experience and personalize the content and advertising you see.
Visit our Privacy Policy to learn more. By continuing to use the site, you agree to this use of cookies and data.
  • In United Kingdom
  • List of Countries
  • For 7 days
  • Water Temperature
  • Satellite Maps
  • Weather Map
  • Weather Widgets
  • user-avatar
    Login

    Hourly Weather Nyiregyhaza

    Today, 19 April, Friday

    Time Temperature Precipitation Wind Pressure Humidity
    00:00 +9°C° 0 mm 3 mps 762 mmHg 70%
    01:00 +8°C° 0 mm 2 mps 762 mmHg 72%
    02:00 +8°C° 0 mm 2 mps 762 mmHg 73%
    03:00 +8°C° 0 mm 2 mps 762 mmHg 75%
    04:00 +8°C° 0 mm 2 mps 762 mmHg 76%
    05:00 +9°C° 0 mm 3 mps 762 mmHg 72%
    06:00 +10°C° 0 mm 4 mps 762 mmHg 68%
    07:00 +12°C° 0 mm 4 mps 762 mmHg 64%
    08:00 +13°C° 0 mm 5 mps 761 mmHg 58%
    09:00 +15°C° 0 mm 6 mps 761 mmHg 51%
    10:00 +17°C° 0 mm 7 mps 761 mmHg 45%
    11:00 +18°C° 0 mm 7 mps 761 mmHg 42%
    12:00 +18°C° 0 mm 7 mps 761 mmHg 38%
    13:00 +20°C° 0 mm 7 mps 761 mmHg 35%
    14:00 +18°C° 0 mm 7 mps 761 mmHg 36%
    15:00 +19°C° 0 mm 6 mps 761 mmHg 37%
    16:00 +17°C° 0 mm 6 mps 761 mmHg 39%
    17:00 +16°C° 0 mm 6 mps 761 mmHg 43%
    18:00 +14°C° 0 mm 5 mps 761 mmHg 47%
    19:00 +12°C° 0 mm 4 mps 762 mmHg 51%
    20:00 +11°C° 0 mm 4 mps 762 mmHg 52%
    21:00 +10°C° 0 mm 4 mps 763 mmHg 54%
    22:00 +9°C° 0 mm 3 mps 763 mmHg 55%
    23:00 +8°C° 0 mm 3 mps 763 mmHg 57%

    Tomorrow, 20 April, Saturday

    Time Temperature Precipitation Wind Pressure Humidity
    00:00 +8°C° 0 mm 3 mps 763 mmHg 59%
    01:00 +7°C° 0 mm 3 mps 763 mmHg 61%
    02:00 +7°C° 0 mm 3 mps 763 mmHg 63%
    03:00 +5°C° 0 mm 3 mps 763 mmHg 64%
    04:00 +5°C° 0 mm 3 mps 763 mmHg 65%
    05:00 +7°C° 0 mm 3 mps 763 mmHg 63%
    06:00 +8°C° 0 mm 3 mps 762 mmHg 61%
    07:00 +10°C° 0 mm 3 mps 762 mmHg 58%
    08:00 +12°C° 0 mm 4 mps 762 mmHg 52%
    09:00 +13°C° 0 mm 4 mps 762 mmHg 45%
    10:00 +15°C° 0 mm 4 mps 762 mmHg 39%
    11:00 +17°C° 0 mm 4 mps 761 mmHg 37%
    12:00 +18°C° 0 mm 3 mps 761 mmHg 35%
    13:00 +18°C° 0 mm 3 mps 760 mmHg 33%
    14:00 +18°C° 0 mm 2 mps 760 mmHg 33%
    15:00 +19°C° 0 mm 2 mps 759 mmHg 33%
    16:00 +19°C° 0 mm 2 mps 759 mmHg 33%
    17:00 +18°C° 0 mm 1 mps 759 mmHg 37%
    18:00 +15°C° 0 mm 1 mps 759 mmHg 41%
    19:00 +13°C° 0 mm 1 mps 759 mmHg 45%
    20:00 +13°C° 0 mm 1 mps 759 mmHg 46%
    21:00 +13°C° 0 mm 2 mps 759 mmHg 48%
    22:00 +13°C° 0 mm 2 mps 759 mmHg 49%
    23:00 +13°C° 0 mm 2 mps 759 mmHg 50%

    Day after tomorrow, 21 April, Sunday

    Time Temperature Precipitation Wind Pressure Humidity
    00:00 +12°C° 0 mm 3 mps 759 mmHg 51%
    01:00 +11°C° 0 mm 3 mps 758 mmHg 52%
    02:00 +12°C° 0.1 mm 2 mps 758 mmHg 55%
    03:00 +10°C° 0.1 mm 2 mps 758 mmHg 58%
    04:00 +11°C° 0.1 mm 1 mps 758 mmHg 61%
    05:00 +11°C° 0 mm 1 mps 758 mmHg 62%
    06:00 +12°C° 0 mm 2 mps 758 mmHg 63%
    07:00 +12°C° 0 mm 2 mps 758 mmHg 64%
    08:00 +14°C° 0 mm 2 mps 757 mmHg 60%
    09:00 +15°C° 0 mm 2 mps 757 mmHg 56%
    10:00 +16°C° 0 mm 2 mps 757 mmHg 52%
    11:00 +18°C° 0 mm 1 mps 757 mmHg 50%
    12:00 +19°C° 0 mm 1 mps 756 mmHg 48%
    13:00 +20°C° 0 mm 1 mps 756 mmHg 46%
    14:00 +20°C° 0.1 mm 1 mps 756 mmHg 44%
    15:00 +20°C° 0.1 mm 1 mps 755 mmHg 43%
    16:00 +20°C° 0.1 mm 1 mps 755 mmHg 42%
    17:00 +18°C° 0 mm 1 mps 755 mmHg 46%
    18:00 +16°C° 0 mm 1 mps 755 mmHg 51%
    19:00 +14°C° 0 mm 2 mps 755 mmHg 56%
    20:00 +14°C° 0.2 mm 2 mps 755 mmHg 63%
    21:00 +13°C° 0.2 mm 2 mps 755 mmHg 70%
    22:00 +12°C° 0.2 mm 2 mps 756 mmHg 76%
    23:00 +12°C° 0.4 mm 2 mps 756 mmHg 80%

    22 April, Monday

    Time Temperature Precipitation Wind Pressure Humidity
    00:00 +12°C° 0.4 mm 1 mps 756 mmHg 84%
    01:00 +11°C° 0.4 mm 1 mps 755 mmHg 87%
    02:00 +10°C° 0.1 mm 2 mps 755 mmHg 89%
    03:00 +9°C° 0.1 mm 2 mps 755 mmHg 91%
    04:00 +9°C° 0.1 mm 2 mps 755 mmHg 93%
    05:00 +10°C° 0 mm 2 mps 755 mmHg 90%
    06:00 +10°C° 0 mm 3 mps 755 mmHg 86%
    07:00 +11°C° 0 mm 3 mps 755 mmHg 82%
    08:00 +13°C° 0 mm 3 mps 755 mmHg 74%
    09:00 +14°C° 0 mm 3 mps 755 mmHg 66%
    10:00 +17°C° 0 mm 3 mps 755 mmHg 58%
    11:00 +18°C° 0.1 mm 3 mps 755 mmHg 55%
    12:00 +19°C° 0.1 mm 3 mps 754 mmHg 51%
    13:00 +20°C° 0.1 mm 4 mps 754 mmHg 48%
    14:00 +20°C° 0.1 mm 4 mps 754 mmHg 48%
    15:00 +20°C° 0.1 mm 4 mps 754 mmHg 48%
    16:00 +20°C° 0.1 mm 4 mps 753 mmHg 49%
    17:00 +18°C° 0 mm 4 mps 753 mmHg 54%
    18:00 +17°C° 0 mm 4 mps 754 mmHg 59%
    19:00 +16°C° 0 mm 3 mps 754 mmHg 64%
    20:00 +14°C° 0 mm 4 mps 754 mmHg 65%
    21:00 +13°C° 0 mm 4 mps 754 mmHg 67%
    22:00 +12°C° 0 mm 4 mps 754 mmHg 69%
    23:00 +12°C° 0 mm 5 mps 754 mmHg 66%

    23 April, Tuesday

    Time Temperature Precipitation Wind Pressure Humidity
    00:00 +10°C° 0 mm 5 mps 754 mmHg 64%
    01:00 +10°C° 0 mm 6 mps 754 mmHg 62%
    02:00 +10°C° 0 mm 6 mps 754 mmHg 62%
    03:00 +9°C° 0 mm 6 mps 754 mmHg 62%
    04:00 +9°C° 0 mm 6 mps 754 mmHg 62%
    05:00 +9°C° 0 mm 6 mps 754 mmHg 61%
    06:00 +10°C° 0 mm 6 mps 754 mmHg 59%
    07:00 +10°C° 0 mm 6 mps 755 mmHg 58%
    08:00 +11°C° 0 mm 6 mps 754 mmHg 57%
    09:00 +11°C° 0 mm 6 mps 754 mmHg 55%
    10:00 +13°C° 0 mm 6 mps 754 mmHg 54%
    11:00 +14°C° 0 mm 5 mps 754 mmHg 53%
    12:00 +15°C° 0 mm 5 mps 754 mmHg 51%
    13:00 +16°C° 0 mm 5 mps 754 mmHg 50%
    14:00 +17°C° 0 mm 5 mps 753 mmHg 49%
    15:00 +19°C° 0 mm 4 mps 753 mmHg 49%
    16:00 +19°C° 0 mm 4 mps 753 mmHg 48%
    17:00 +18°C° 0 mm 4 mps 753 mmHg 50%
    18:00 +16°C° 0 mm 5 mps 753 mmHg 53%
    19:00 +14°C° 0 mm 5 mps 753 mmHg 55%
    20:00 +14°C° 0 mm 5 mps 754 mmHg 56%
    21:00 +13°C° 0 mm 4 mps 754 mmHg 57%
    22:00 +12°C° 0 mm 4 mps 754 mmHg 57%
    23:00 +11°C° 0 mm 4 mps 754 mmHg 58%

    24 April, Wednesday

    Time Temperature Precipitation Wind Pressure Humidity
    00:00 +11°C° 0 mm 4 mps 754 mmHg 59%
    01:00 +10°C° 0 mm 4 mps 754 mmHg 60%
    02:00 +10°C° 0.4 mm 3 mps 754 mmHg 63%
    03:00 +10°C° 0.4 mm 3 mps 755 mmHg 66%
    04:00 +10°C° 0.4 mm 2 mps 755 mmHg 70%
    05:00 +10°C° 0.7 mm 2 mps 755 mmHg 72%
    06:00 +10°C° 0.7 mm 2 mps 755 mmHg 74%
    07:00 +10°C° 0.7 mm 2 mps 756 mmHg 76%
    08:00 +12°C° 0.1 mm 2 mps 756 mmHg 72%
    09:00 +13°C° 0.1 mm 2 mps 756 mmHg 67%
    10:00 +15°C° 0.1 mm 2 mps 756 mmHg 63%
    11:00 +16°C° 0 mm 2 mps 756 mmHg 61%
    12:00 +17°C° 0 mm 2 mps 756 mmHg 60%
    13:00 +18°C° 0 mm 2 mps 756 mmHg 58%
    14:00 +19°C° 0 mm 2 mps 756 mmHg 58%
    15:00 +19°C° 0 mm 2 mps 755 mmHg 59%
    16:00 +20°C° 0 mm 1 mps 755 mmHg 59%
    17:00 +19°C° 0 mm 1 mps 755 mmHg 64%
    18:00 +16°C° 0 mm 1 mps 755 mmHg 70%
    19:00 +15°C° 0 mm 1 mps 756 mmHg 75%
    20:00 +15°C° 0 mm 1 mps 756 mmHg 77%
    21:00 +14°C° 0 mm 1 mps 756 mmHg 79%
    22:00 +14°C° 0 mm 1 mps 757 mmHg 82%
    23:00 +13°C° 0 mm 1 mps 757 mmHg 82%
    Show more